Location: Pasadena, ca
(34.1243°N, 118.1037°W)
Time: 18:40:22
(UTC-08:00)

N. Korean satellite - Pass Details

Date: 07 October 2017
Orbit: 461 x 513 km, 97.2° (Epoch: 13 December)

Event Time Altitude Azimuth Distance (km) Brightness Sun altitude
Rises 19:07:38 0° 173° (S) 2,583 10.2 -9.0°
Reaches altitude 10° 19:09:44 10° 175° (S) 1,696 9.3 -9.5°
Maximum altitude 19:13:22 69° 259° (W) 532 7.0 -10.2°
Drops below altitude 10° 19:16:58 10° 343° (NNW) 1,678 9.5 -10.9°
Sets 19:19:02 0° 346° (NNW) 2,553 10.4 -11.4°
